Regional Weather Roundup
Issued by NWS

Home | Current Version | Previous Version | Text Only | Print | Product List | Glossary Off
Versions: 1 2 3 4 5 6 7 8 9 10 11 12 13 14 15 16 17 18 19 20 21 22 23 24 25 26 27 28 29 30 31 32 33 34 35 36 37 38 39 40 41 42 43 44 45 46 47 48 49 50

000
ASUS43 KIND 241509
RWRIN

WEATHER ROUNDUP FOR INDIANA
NATIONAL WEATHER SERVICE INDIANAPOLIS IN
1100 AM EDT SAT JUN 24 2017

NOTE: "FAIR" INDICATES FEW OR NO CLOUDS BELOW 12,000 FEET WITH NO
SIGNIFICANT WEATHER AND/OR OBSTRUCTIONS TO VISIBILITY.

* - STATION DOES NOT REPORT WEATHER SUCH AS PRECIPITATION OR FOG.

+ - STATION NOT QUALITY CONTROLLED BY THE NATIONAL WEATHER SERVICE.
    USE DATA WITH CAUTION...ESPECIALLY DEWPOINT AND RELATIVE
    HUMIDITY OBSERVATIONS.

INZ001>003-010>013-019-020-241600-
NORTHWEST INDIANA

CITY           SKY/WX    TMP DP  RH WIND       PRES   REMARKS
GARY /AIRPORT/ MOSUNNY   72  52  49 SW10      29.96R
KNOX *+        MOSUNNY   68  48  49 W9        29.96R
LA PORTE +     PTSUNNY   69  56  64 NW9       29.96S
MICHIGAN CITY+ PTSUNNY   68  55  64 W8G16     29.97R
MONTICELLO +   SUNNY     69  58  68 W8        29.97R
VALPARAISO     MOSUNNY   71  57  61 W10       29.96S

$$

LMZ046-743>745-241600-
SOUTHERN LAKE MICHIGAN

STATION/POSITION TIME  TEMP    WIND        PRES    WAVE
                       AIR SEA DIR/SP/G            HT
                 (UTC) (F)     (DEG/KT/KT) (MB)    (FT)
BURNS HARBOR     1440   65     300/  6/  9 1014.9R
MICHIGAN CITY    1440   65     270/ 13/ 14   N/A
5NW MICH CITY    1500   65 68  290/ 10/ 12   N/A     3

$$

INZ004-005-014>016-021>024-241600-
NORTH CENTRAL INDIANA

CITY           SKY/WX    TMP DP  RH WIND       PRES   REMARKS
ELKHART        PTSUNNY   70  55  60 W14       29.94R
GOSHEN         CLOUDY    70  56  61 W10       29.93R
LOGANSPORT +   MOSUNNY   68  61  77 W9        29.98R
PERU/GRISSOM   SUNNY     70  61  72 W10       29.96S
ROCHESTER +    MOSUNNY   72  59  64 W6        29.96R
SOUTH BEND     PTSUNNY   67  56  67 NW14      29.95R
WARSAW +       MOSUNNY   70  55  60 W8        29.94S

$$

INZ006>009-017-018-025>027-241600-
NORTHEAST INDIANA

CITY           SKY/WX    TMP DP  RH WIND       PRES   REMARKS
AUBURN +       MOSUNNY   72  55  56 SW9       29.93S
FORT WAYNE     MOSUNNY   71  57  61 W13       29.94S
HUNTINGTON +   MOSUNNY   70  58  66 W10       29.95S
KENDALLVILLE + SUNNY    N/A N/A N/A W14       29.93S

$$

INZ028-029-035-036-043>045-051>053-241600-
WEST CENTRAL INDIANA

CITY           SKY/WX    TMP DP  RH WIND       PRES   REMARKS
CRAWFORDSVL +  MOSUNNY   67  59  74 W8        30.00S
GREENCASTLE +  SUNNY     70  59  68 W3        30.01S
LAFAYETTE      MOSUNNY   69  61  75 W10       29.98R
TERRE HAUTE    SUNNY     72  58  61 W10       30.02S

$$

INZ030>032-037>040-046>048-054>057-064-065-241600-
CENTRAL INDIANA

CITY           SKY/WX    TMP DP  RH WIND       PRES   REMARKS
ANDERSON         N/A     73  63  68 MISG        N/A
CP ATTERBURY + SUNNY     72  59  64 W6        30.01S
COLUMBUS       MOSUNNY   70  57  64 NW5       30.01R
FRANKFORT +    SUNNY     72  62  70 W10       30.00S
GREENWOOD *+   SUNNY     70  56  61 W5        30.00S
INDIANAPOLIS   MOSUNNY   71  59  65 W9        29.99S
-EAGLE CREEK   SUNNY     71  57  61 VRB3      29.98S
KOKOMO +       SUNNY     70  60  70 SW9       29.98S
MARION +       SUNNY     70  57  64 W9        29.97S HAZE
MT COMFORT *+  SUNNY     70  57  64 NW6       29.99S
SHELBYVILLE    SUNNY     72  57  59 W3        29.99R
ZIONSVILLE +   SUNNY     69  59  72 SW5       29.99S

$$

INZ033-034-041-042-049-050-058-059-241600-
EAST CENTRAL INDIANA

CITY           SKY/WX    TMP DP  RH WIND       PRES   REMARKS
MUNCIE         SUNNY     72  58  61 NW7       29.97S
RICHMOND +     SUNNY     68  57  68 NW3       29.99S

$$

INZ060-061-067>069-081>083-085>088-241600-
SOUTHWEST INDIANA

CITY           SKY/WX    TMP DP  RH WIND       PRES   REMARKS
EVANSVILLE     SUNNY     73  58  59 NW7       30.06S
HUNTINGBURG *+ SUNNY     72  61  68 NW6       30.05S
WASHINGTON +   SUNNY     71  57  62 NW6       30.04S

$$

INZ062-063-066-070>080-084-089>092-241600-
SOUTH CENTRAL AND SOUTHEAST INDIANA

CITY           SKY/WX    TMP DP  RH WIND       PRES   REMARKS
BEDFORD +      SUNNY     72  59  64 CALM      30.02R
BLOOMINGTON    SUNNY     70  59  68 W8        30.03R
MADISON *+     SUNNY     72  59  64 W6        30.04S
NORTH VERNON + SUNNY     68  59  73 W3        30.02R
SEYMOUR +      SUNNY     73  61  64 W7        30.02R

$$





USA.gov is the U.S. government's official web portal to all federal, state and local government web resources and services.